Location: San Martino di Castrozza
(46.2667°N, 11.8000°E)
Time: 16:23:05
(UTC+00:00)

Cosmos 1943 Rocket - Pass Details

Date: 23 April 2021
Orbit: 812 x 843 km, 71.0° (Epoch: 13 May)

Event Time Altitude Azimuth Distance (km) Brightness Sun altitude
Exits shadow 02:33:30 25° 231° (SW) 1,657 3.1 -15.7°
Maximum altitude 02:36:46 57° 301° (WNW) 989 2.4 -15.3°
Drops below altitude 10° 02:42:20 10° 20° (NNE) 2,460 5.5 -14.5°
Sets 02:44:50 0° 24° (NNE) 3,394 6.5 -14.2°
